Weather History for Corpus Christi, TX

Change the Weather History Date:

Thursday, February 21, 2013

  Actual Average Record
Temperature  
Mean Temperature 77 °F 62 °F  
Max Temperature 85 °F 72 °F 92 °F (1997)
Min Temperature 69 °F 52 °F 33 °F (1978)
Degree Days  
Heating Degree Days 0 5  
Month to date heating degree days 40 140  
Since 1 July heating degree days 423 767  
Cooling Degree Days 12 2  
Month to date cooling degree days 73 35  
Year to date cooling degree days 140 65  
Growing Degree Days 26 (Base 50)    
Moisture  
Dew Point 61 °F    
Average Humidity 60    
Maximum Humidity 84    
Minimum Humidity 36    
Precipitation  
Precipitation T in 0.07 in 1.53 in (1938)
Month to date precipitation 0.43 1.40  
Year to date precipitation 1.68 2.94  
Snow  
Snow 0.00 in - - ()
Month to date snowfall 0.0  
Since 1 July snowfall 0.0  
Snow Depth 0.00 in    
Sea Level Pressure  
Sea Level Pressure 29.69 in    
Wind  
Wind Speed 17 mph (SE)    
Max Wind Speed 29 mph    
Max Gust Speed 37 mph    
Visibility 9 miles    
Events Rain    
T = Trace of Precipitation, MM = Missing Value Source: NWS Daily Summary

Daily Weather History Graph

Daily Weather History Graph

Search for Another Location

Airport:

Trip Planner

Search our weather history database for the weather conditions in past years. The results will help you decide how hot, cold, wet, or windy it might be!

Date:

Astronomy

Feb. 21, 2013 Rise Set
Actual Time 7:01 AM CST 6:25 PM CST
Civil Twilight 6:38 AM CST 6:49 PM CST
Nautical Twilight 6:10 AM CST 7:16 PM CST
Astronomical Twilight 5:43 AM CST 7:43 PM CST
Moon 2:54 PM CST (2/21) 3:53 AM CST (2/21)
Length of Visible Light 12h 11m
Length of Day
11h 23m
Waxing Gibbous, 84% of the Moon is Illuminated
Feb 21
Waxing Gibbous
Feb 25
Full
Mar 4
Last Quarter
Mar 11
New
Mar 19
First Quarter

Hourly Weather History & Observations

Time (CST) Temp. Heat Index Dew Point Humidity Pressure Visibility Wind Dir Wind Speed Gust Speed Precip Events Conditions
12:51 AM 73.0 °F - 66.9 °F 81% 29.68 in 9.0 mi SSE 23.0 mph 29.9 mph 0.00 in Rain Light Rain
1:51 AM 73.0 °F - 66.9 °F 81% 29.65 in 9.0 mi SSE 24.2 mph 32.2 mph 0.00 in   Overcast
2:51 AM 73.0 °F - 66.9 °F 81% 29.63 in 9.0 mi SSE 26.5 mph 34.5 mph N/A   Overcast
3:09 AM 73.4 °F - 66.2 °F 78% 29.63 in 9.0 mi South 23.0 mph 34.5 mph N/A   Mostly Cloudy
3:51 AM 73.0 °F - 66.9 °F 81% 29.60 in 7.0 mi SSE 27.6 mph 36.8 mph N/A   Overcast
4:31 AM 71.6 °F - 66.2 °F 83% 29.60 in 7.0 mi South 24.2 mph 33.4 mph N/A   Overcast
4:51 AM 72.0 °F - 66.9 °F 84% 29.59 in 7.0 mi South 25.3 mph - N/A   Overcast
5:51 AM 71.6 °F - 66.2 °F 83% 29.60 in 7.0 mi SSE 23.0 mph 29.9 mph N/A   Overcast
6:51 AM 71.1 °F - 66.9 °F 87% 29.61 in 5.0 mi South 20.7 mph - N/A   Overcast
7:51 AM 71.1 °F - 66.9 °F 87% 29.64 in 4.0 mi South 17.3 mph 24.2 mph N/A   Mostly Cloudy
8:03 AM 71.6 °F - 66.2 °F 83% 29.64 in 5.0 mi South 19.6 mph - N/A   Haze
8:51 AM 73.9 °F - 68.0 °F 82% 29.66 in 8.0 mi South 20.7 mph 29.9 mph N/A   Partly Cloudy
9:51 AM 78.1 °F - 68.0 °F 71% 29.66 in 10.0 mi South 20.7 mph - N/A   Partly Cloudy
10:51 AM 82.9 °F 85.0 °F 66.0 °F 56% 29.71 in 10.0 mi WSW 21.9 mph 28.8 mph N/A   Scattered Clouds
11:35 AM 80.6 °F 82.7 °F 66.2 °F 61% 29.71 in 10.0 mi NW 18.4 mph - N/A   Mostly Cloudy
11:51 AM 81.0 °F 83.0 °F 66.0 °F 60% 29.72 in 10.0 mi WNW 15.0 mph - N/A   Mostly Cloudy
12:51 PM 81.0 °F 82.5 °F 64.0 °F 56% 29.70 in 10.0 mi WNW 8.1 mph - N/A   Scattered Clouds
1:51 PM 82.0 °F 83.1 °F 63.0 °F 52% 29.68 in 10.0 mi Variable 5.8 mph - N/A   Scattered Clouds
2:51 PM 84.0 °F 84.5 °F 62.1 °F 47% 29.68 in 10.0 mi NNW 15.0 mph - N/A   Scattered Clouds
3:51 PM 82.0 °F 81.7 °F 57.0 °F 42% 29.68 in 10.0 mi North 19.6 mph - N/A   Scattered Clouds
4:51 PM 80.1 °F 79.9 °F 53.1 °F 39% 29.70 in 10.0 mi North 19.6 mph 25.3 mph N/A   Clear
5:51 PM 77.0 °F - 48.9 °F 37% 29.73 in 10.0 mi North 13.8 mph - N/A   Partly Cloudy
6:51 PM 73.9 °F - 48.0 °F 40% 29.76 in 10.0 mi NE 8.1 mph - N/A   Partly Cloudy
7:51 PM 72.0 °F - 48.9 °F 44% 29.77 in 10.0 mi NE 11.5 mph - N/A   Partly Cloudy
8:51 PM 71.1 °F - 46.9 °F 42% 29.79 in 10.0 mi ENE 9.2 mph - N/A   Partly Cloudy
9:51 PM 71.1 °F - 46.9 °F 42% 29.81 in 10.0 mi East 11.5 mph - N/A   Partly Cloudy
10:51 PM 70.0 °F - 50.0 °F 49% 29.81 in 10.0 mi East 10.4 mph - N/A   Partly Cloudy
11:51 PM 69.1 °F - 50.0 °F 51% 29.81 in 10.0 mi East 6.9 mph - N/A   Clear